• In Italy
  • List of Countries
  • For 7 days
  • Water Temperature
  • Satellite Maps
  • Weather Map
  • Weather Widgets
  • user-avatar
    Login

    Hourly Weather Simeiz

    Today, 20 October, Saturday

    Time Temperature Precipitation Wind Pressure Humidity
    00:00 +14°C° 0 mm 2 mps 717 mmHg 91%
    01:00 +14°C° 0 mm 2 mps 717 mmHg 91%
    02:00 +13°C° 0 mm 2 mps 717 mmHg 92%
    03:00 +13°C° 0 mm 2 mps 717 mmHg 91%
    04:00 +13°C° 0 mm 2 mps 717 mmHg 91%
    05:00 +13°C° 0 mm 2 mps 717 mmHg 90%
    06:00 +14°C° 0 mm 2 mps 717 mmHg 85%
    07:00 +15°C° 0 mm 2 mps 718 mmHg 81%
    08:00 +16°C° 0 mm 2 mps 718 mmHg 76%
    09:00 +17°C° 0 mm 2 mps 718 mmHg 72%
    10:00 +18°C° 0 mm 2 mps 718 mmHg 68%
    11:00 +19°C° 0 mm 3 mps 718 mmHg 63%
    12:00 +19°C° 0.1 mm 3 mps 718 mmHg 64%
    13:00 +19°C° 0.1 mm 3 mps 717 mmHg 64%
    14:00 +19°C° 0 mm 3 mps 717 mmHg 66%
    15:00 +18°C° 0 mm 3 mps 717 mmHg 70%
    16:00 +17°C° 0 mm 2 mps 717 mmHg 75%
    17:00 +16°C° 0 mm 2 mps 717 mmHg 79%
    18:00 +15°C° 0 mm 2 mps 717 mmHg 81%
    19:00 +15°C° 0 mm 2 mps 717 mmHg 83%
    20:00 +14°C° 0 mm 2 mps 717 mmHg 84%
    21:00 +14°C° 0.1 mm 2 mps 717 mmHg 85%
    22:00 +13°C° 0.1 mm 2 mps 717 mmHg 86%
    23:00 +13°C° 0.1 mm 2 mps 717 mmHg 86%

    Tomorrow, 21 October, Sunday

    Time Temperature Precipitation Wind Pressure Humidity
    00:00 +13°C° 0.1 mm 2 mps 717 mmHg 87%
    01:00 +13°C° 0.1 mm 2 mps 717 mmHg 87%
    02:00 +13°C° 0.1 mm 2 mps 717 mmHg 87%
    03:00 +13°C° 0.1 mm 2 mps 716 mmHg 87%
    04:00 +12°C° 0.1 mm 2 mps 716 mmHg 88%
    05:00 +12°C° 0.1 mm 2 mps 716 mmHg 88%
    06:00 +13°C° 0.1 mm 2 mps 716 mmHg 86%
    07:00 +14°C° 0.1 mm 2 mps 717 mmHg 83%
    08:00 +14°C° 0.1 mm 2 mps 717 mmHg 81%
    09:00 +15°C° 0.1 mm 1 mps 717 mmHg 77%
    10:00 +16°C° 0.1 mm 1 mps 717 mmHg 73%
    11:00 +18°C° 0.1 mm 1 mps 717 mmHg 70%
    12:00 +18°C° 0 mm 1 mps 717 mmHg 69%
    13:00 +18°C° 0 mm 2 mps 717 mmHg 68%
    14:00 +18°C° 0 mm 2 mps 717 mmHg 67%
    15:00 +17°C° 0.3 mm 2 mps 717 mmHg 69%
    16:00 +16°C° 0.3 mm 2 mps 717 mmHg 71%
    17:00 +14°C° 0.3 mm 3 mps 718 mmHg 73%
    18:00 +14°C° 0.3 mm 3 mps 718 mmHg 75%
    19:00 +13°C° 0.3 mm 3 mps 718 mmHg 78%
    20:00 +13°C° 0.3 mm 3 mps 718 mmHg 80%
    21:00 +13°C° 0.2 mm 2 mps 718 mmHg 82%
    22:00 +13°C° 0.2 mm 2 mps 718 mmHg 84%
    23:00 +13°C° 0.2 mm 2 mps 718 mmHg 86%

    Day after tomorrow, 22 October, Monday

    Time Temperature Precipitation Wind Pressure Humidity
    00:00 +12°C° 0 mm 2 mps 718 mmHg 86%
    01:00 +12°C° 0 mm 2 mps 718 mmHg 86%
    02:00 +12°C° 0 mm 2 mps 718 mmHg 86%
    03:00 +12°C° 0 mm 2 mps 718 mmHg 86%
    04:00 +10°C° 0 mm 2 mps 718 mmHg 85%
    05:00 +10°C° 0 mm 2 mps 718 mmHg 85%
    06:00 +12°C° 0 mm 2 mps 718 mmHg 80%
    07:00 +13°C° 0 mm 2 mps 719 mmHg 76%
    08:00 +14°C° 0 mm 2 mps 719 mmHg 72%
    09:00 +15°C° 0 mm 2 mps 719 mmHg 68%
    10:00 +16°C° 0 mm 2 mps 719 mmHg 64%
    11:00 +19°C° 0 mm 1 mps 719 mmHg 59%
    12:00 +18°C° 0 mm 2 mps 719 mmHg 59%
    13:00 +18°C° 0 mm 2 mps 719 mmHg 59%
    14:00 +18°C° 0 mm 2 mps 719 mmHg 59%
    15:00 +17°C° 0 mm 2 mps 719 mmHg 64%
    16:00 +16°C° 0 mm 2 mps 719 mmHg 69%
    17:00 +15°C° 0 mm 2 mps 719 mmHg 74%
    18:00 +14°C° 0 mm 2 mps 719 mmHg 76%
    19:00 +14°C° 0 mm 2 mps 719 mmHg 79%
    20:00 +13°C° 0 mm 2 mps 719 mmHg 82%
    21:00 +13°C° 0 mm 1 mps 719 mmHg 83%
    22:00 +13°C° 0 mm 1 mps 719 mmHg 84%
    23:00 +12°C° 0 mm 1 mps 719 mmHg 86%

    23 October, Tuesday

    Time Temperature Precipitation Wind Pressure Humidity
    00:00 +12°C° 0 mm 1 mps 719 mmHg 87%
    01:00 +12°C° 0 mm 1 mps 719 mmHg 88%
    02:00 +12°C° 0 mm 2 mps 719 mmHg 88%
    03:00 +10°C° 0 mm 2 mps 718 mmHg 90%
    04:00 +10°C° 0 mm 2 mps 718 mmHg 91%
    05:00 +10°C° 0 mm 2 mps 718 mmHg 92%
    06:00 +12°C° 0 mm 2 mps 718 mmHg 89%
    07:00 +12°C° 0 mm 2 mps 719 mmHg 85%
    08:00 +13°C° 0 mm 2 mps 719 mmHg 82%
    09:00 +14°C° 0 mm 2 mps 719 mmHg 74%
    10:00 +15°C° 0 mm 2 mps 719 mmHg 67%
    11:00 +17°C° 0 mm 3 mps 719 mmHg 60%
    12:00 +17°C° 0 mm 3 mps 719 mmHg 59%
    13:00 +17°C° 0 mm 3 mps 718 mmHg 58%
    14:00 +17°C° 0 mm 4 mps 718 mmHg 57%
    15:00 +14°C° 0 mm 4 mps 718 mmHg 63%
    16:00 +13°C° 0 mm 4 mps 718 mmHg 68%
    17:00 +12°C° 0 mm 4 mps 717 mmHg 73%
    18:00 +11°C° 0 mm 3 mps 717 mmHg 76%
    19:00 +10°C° 0 mm 3 mps 717 mmHg 79%
    20:00 +10°C° 0 mm 3 mps 717 mmHg 82%
    21:00 +9°C° 0 mm 3 mps 717 mmHg 82%
    22:00 +9°C° 0 mm 3 mps 717 mmHg 81%
    23:00 +9°C° 0 mm 2 mps 716 mmHg 80%

    24 October, Wednesday

    Time Temperature Precipitation Wind Pressure Humidity
    00:00 +9°C° 0 mm 2 mps 716 mmHg 78%
    01:00 +9°C° 0 mm 2 mps 715 mmHg 75%
    02:00 +8°C° 0 mm 2 mps 715 mmHg 73%
    03:00 +8°C° 0 mm 2 mps 714 mmHg 73%
    04:00 +8°C° 0 mm 2 mps 713 mmHg 73%
    05:00 +8°C° 0 mm 2 mps 713 mmHg 73%
    06:00 +9°C° 0 mm 3 mps 712 mmHg 71%
    07:00 +10°C° 0 mm 3 mps 712 mmHg 69%
    08:00 +11°C° 0 mm 4 mps 711 mmHg 68%
    09:00 +12°C° 0 mm 5 mps 711 mmHg 65%
    10:00 +13°C° 0 mm 6 mps 710 mmHg 62%
    11:00 +14°C° 0 mm 7 mps 710 mmHg 59%
    12:00 +14°C° 0 mm 7 mps 709 mmHg 63%
    13:00 +13°C° 0 mm 8 mps 708 mmHg 67%
    14:00 +12°C° 0 mm 8 mps 708 mmHg 70%
    15:00 +12°C° 0 mm 9 mps 707 mmHg 73%
    16:00 +11°C° 0 mm 9 mps 707 mmHg 76%
    17:00 +11°C° 0 mm 9 mps 706 mmHg 78%
    18:00 +10°C° 0.2 mm 9 mps 706 mmHg 80%
    19:00 +8°C° 0.2 mm 9 mps 706 mmHg 82%
    20:00 +8°C° 0.2 mm 9 mps 705 mmHg 84%
    21:00 +8°C° 0.4 mm 9 mps 705 mmHg 85%
    22:00 +8°C° 0.4 mm 9 mps 705 mmHg 86%
    23:00 +7°C° 0.4 mm 9 mps 704 mmHg 87%

    25 October, Thursday

    Time Temperature Precipitation Wind Pressure Humidity
    00:00 +6°C° 0.6 mm 8 mps 704 mmHg 85%
    01:00 +5°C° 0.6 mm 8 mps 704 mmHg 84%
    02:00 +4°C° 0.6 mm 7 mps 704 mmHg 82%
    03:00 +3°C° 0.1 mm 7 mps 705 mmHg 80%
    04:00 +3°C° 0.1 mm 7 mps 705 mmHg 79%
    05:00 +3°C° 0.1 mm 7 mps 705 mmHg 77%
    06:00 +3°C° 0.1 mm 7 mps 706 mmHg 76%
    07:00 +3°C° 0.1 mm 7 mps 707 mmHg 74%
    08:00 +2°C° 0.1 mm 8 mps 707 mmHg 73%
    09:00 +2°C° 0.1 mm 8 mps 708 mmHg 68%
    10:00 +4°C° 0.1 mm 8 mps 708 mmHg 64%
    11:00 +5°C° 0.1 mm 8 mps 709 mmHg 59%
    12:00 +5°C° 0.2 mm 8 mps 709 mmHg 60%
    13:00 +5°C° 0.2 mm 8 mps 709 mmHg 61%
    14:00 +5°C° 0.2 mm 8 mps 709 mmHg 62%
    15:00 +4°C° 0.3 mm 8 mps 710 mmHg 66%
    16:00 +4°C° 0.3 mm 8 mps 710 mmHg 71%
    17:00 +4°C° 0.3 mm 8 mps 710 mmHg 75%
    18:00 +3°C° 0.3 mm 7 mps 711 mmHg 76%
    19:00 +3°C° 0.3 mm 7 mps 711 mmHg 77%
    20:00 +3°C° 0.3 mm 6 mps 712 mmHg 79%
    21:00 +3°C° 0.2 mm 6 mps 712 mmHg 79%
    22:00 +3°C° 0.2 mm 6 mps 712 mmHg 78%
    23:00 +2°C° 0.2 mm 5 mps 713 mmHg 78%
    Show more